Time,TemperatureF,DewpointF,PressureIn,WindDirection,WindDirectionDegrees,WindSpeedMPH,WindSpeedGustMPH,Humidity,HourlyPrecipIn,Conditions,Clouds,dailyrainin,SoftwareType,DateUTC
2013-03-02 00:01:00,27.6,23.7,30.28,North,355,3.0,3.0,85,0.00,,,0.00,Wunderground v.1.15,2013-03-02 06:01:00,
2013-03-02 00:10:00,27.6,23.4,30.28,NNW,346,5.0,5.0,84,0.00,,,0.00,Wunderground v.1.15,2013-03-02 06:10:00,
2013-03-02 00:15:00,27.5,23.3,30.28,North,360,4.0,4.0,84,0.00,,,0.00,Wunderground v.1.15,2013-03-02 06:15:00,
2013-03-02 00:20:00,27.5,23.3,30.28,NNW,337,4.0,5.0,84,0.00,,,0.00,Wunderground v.1.15,2013-03-02 06:20:00,
2013-03-02 00:26:00,27.5,23.3,30.28,NNW,338,5.0,9.0,84,0.00,,,0.00,Wunderground v.1.15,2013-03-02 06:26:00,
2013-03-02 00:31:00,27.5,23.3,30.29,NNW,347,5.0,9.0,84,0.00,,,0.00,Wunderground v.1.15,2013-03-02 06:31:00,
2013-03-02 00:40:00,27.5,23.3,30.29,North,360,4.0,4.0,84,0.00,,,0.00,Wunderground v.1.15,2013-03-02 06:40:00,
2013-03-02 00:45:00,27.5,23.3,30.29,North,349,4.0,4.0,84,0.00,,,0.00,Wunderground v.1.15,2013-03-02 06:45:00,
2013-03-02 00:51:00,27.5,23.3,30.29,NNW,341,4.0,5.0,84,0.00,,,0.00,Wunderground v.1.15,2013-03-02 06:51:00,
2013-03-02 00:56:00,27.5,23.3,30.29,North,355,4.0,7.0,84,0.00,,,0.00,Wunderground v.1.15,2013-03-02 06:56:00,
2013-03-02 01:05:00,27.5,23.3,30.29,NNW,336,6.0,7.0,84,0.00,,,0.00,Wunderground v.1.15,2013-03-02 07:05:00,
2013-03-02 01:10:00,27.3,22.8,30.29,NNW,345,6.0,6.0,83,0.00,,,0.00,Wunderground v.1.15,2013-03-02 07:10:00,
2013-03-02 01:15:00,27.3,22.8,30.29,NNW,346,6.0,6.0,83,0.00,,,0.00,Wunderground v.1.15,2013-03-02 07:15:00,
2013-03-02 01:21:00,27.3,22.5,30.29,NNW,344,7.0,7.0,82,0.00,,,0.00,Wunderground v.1.15,2013-03-02 07:21:00,
2013-03-02 01:30:00,27.0,21.9,30.29,NNE,12,5.0,5.0,81,0.00,,,0.00,Wunderground v.1.15,2013-03-02 07:30:00,
2013-03-02 01:35:00,27.0,21.9,30.29,NNW,344,4.0,5.0,81,0.00,,,0.00,Wunderground v.1.15,2013-03-02 07:35:00,
2013-03-02 01:41:00,27.2,22.4,30.29,North,355,5.0,5.0,82,0.00,,,0.00,Wunderground v.1.15,2013-03-02 07:41:00,
2013-03-02 01:46:00,27.2,22.1,30.29,North,355,6.0,6.0,81,0.00,,,0.00,Wunderground v.1.15,2013-03-02 07:46:00,
2013-03-02 01:56:00,27.2,22.1,30.29,NW,326,4.0,6.0,81,0.00,,,0.00,Wunderground v.1.15,2013-03-02 07:56:00,
2013-03-02 02:01:00,27.3,22.2,30.29,North,355,4.0,5.0,81,0.00,,,0.00,Wunderground v.1.15,2013-03-02 08:01:00,
2013-03-02 02:10:00,27.3,22.5,30.29,North,349,4.0,10.0,82,0.00,,,0.00,Wunderground v.1.15,2013-03-02 08:10:00,
2013-03-02 02:15:00,27.2,22.4,30.29,NNW,341,4.0,4.0,82,0.00,,,0.00,Wunderground v.1.15,2013-03-02 08:15:00,
2013-03-02 02:21:00,27.2,22.7,30.29,NNW,338,3.0,4.0,83,0.00,,,0.00,Wunderground v.1.15,2013-03-02 08:21:00,
2013-03-02 02:30:00,27.2,23.0,30.29,NNW,341,4.0,7.0,84,0.00,,,0.00,Wunderground v.1.15,2013-03-02 08:30:00,
2013-03-02 02:35:00,27.2,23.0,30.29,NNW,335,4.0,4.0,84,0.00,,,0.00,Wunderground v.1.15,2013-03-02 08:35:00,
2013-03-02 02:41:00,27.2,23.0,30.29,NW,321,4.0,4.0,84,0.00,,,0.00,Wunderground v.1.15,2013-03-02 08:41:00,
2013-03-02 02:50:00,27.0,22.8,30.28,NNW,331,4.0,5.0,84,0.00,,,0.00,Wunderground v.1.15,2013-03-02 08:50:00,
2013-03-02 02:55:00,27.0,22.8,30.28,North,11,4.0,4.0,84,0.00,,,0.00,Wunderground v.1.15,2013-03-02 08:55:00,
2013-03-02 03:01:00,27.0,22.8,30.28,North,355,4.0,9.0,84,0.00,,,0.00,Wunderground v.1.15,2013-03-02 09:01:00,
2013-03-02 03:10:00,26.9,22.7,30.28,NNW,336,6.0,9.0,84,0.00,,,0.00,Wunderground v.1.15,2013-03-02 09:10:00,
2013-03-02 03:15:00,26.9,22.7,30.28,NNW,346,5.0,9.0,84,0.00,,,0.00,Wunderground v.1.15,2013-03-02 09:15:00,
2013-03-02 03:21:00,26.9,22.7,30.28,North,355,5.0,9.0,84,0.00,,,0.00,Wunderground v.1.15,2013-03-02 09:21:00,
2013-03-02 03:30:00,26.7,21.9,30.28,North,9,7.0,7.0,82,0.00,,,0.00,Wunderground v.1.15,2013-03-02 09:30:00,
2013-03-02 03:35:00,26.7,21.9,30.28,North,355,7.0,7.0,82,0.00,,,0.00,Wunderground v.1.15,2013-03-02 09:35:00,
2013-03-02 03:40:00,26.6,21.6,30.28,NNE,23,5.0,7.0,81,0.00,,,0.00,Wunderground v.1.15,2013-03-02 09:40:00,
2013-03-02 03:46:00,26.4,21.1,30.28,NNW,339,6.0,6.0,80,0.00,,,0.00,Wunderground v.1.15,2013-03-02 09:46:00,
2013-03-02 03:51:00,26.4,20.8,30.28,North,355,6.0,6.0,79,0.00,,,0.00,Wunderground v.1.15,2013-03-02 09:51:00,
2013-03-02 04:00:00,26.1,20.2,30.28,North,5,6.0,10.0,78,0.00,,,0.00,Wunderground v.1.15,2013-03-02 10:00:00,
2013-03-02 04:06:00,26.0,19.8,30.28,North,355,8.0,10.0,77,0.00,,,0.00,Wunderground v.1.15,2013-03-02 10:06:00,
2013-03-02 04:11:00,26.0,19.8,30.28,NNE,17,8.0,8.0,77,0.00,,,0.00,Wunderground v.1.15,2013-03-02 10:11:00,
2013-03-02 04:20:00,25.8,19.6,30.28,North,11,5.0,8.0,77,0.00,,,0.00,Wunderground v.1.15,2013-03-02 10:20:00,
2013-03-02 04:26:00,25.8,19.9,30.28,North,355,5.0,5.0,78,0.00,,,0.00,Wunderground v.1.15,2013-03-02 10:26:00,
2013-03-02 04:31:00,25.7,19.8,30.29,North,5,5.0,6.0,78,0.00,,,0.00,Wunderground v.1.15,2013-03-02 10:31:00,
2013-03-02 04:40:00,25.6,19.7,30.29,North,351,6.0,6.0,78,0.00,,,0.00,Wunderground v.1.15,2013-03-02 10:40:00,
2013-03-02 04:45:00,25.6,19.7,30.29,NNE,18,6.0,9.0,78,0.00,,,0.00,Wunderground v.1.15,2013-03-02 10:45:00,
2013-03-02 04:51:00,25.6,19.7,30.29,NNW,344,6.0,9.0,78,0.00,,,0.00,Wunderground v.1.15,2013-03-02 10:51:00,
2013-03-02 04:56:00,25.6,19.4,30.29,North,351,7.0,7.0,77,0.00,,,0.00,Wunderground v.1.15,2013-03-02 10:56:00,
2013-03-02 05:05:00,25.6,19.1,30.30,NNE,20,6.0,7.0,76,0.00,,,0.00,Wunderground v.1.15,2013-03-02 11:05:00,
2013-03-02 05:11:00,25.6,18.8,30.30,NNE,14,7.0,7.0,75,0.00,,,0.00,Wunderground v.1.15,2013-03-02 11:11:00,
2013-03-02 05:16:00,25.4,18.6,30.30,NE,43,7.0,7.0,75,0.00,,,0.00,Wunderground v.1.15,2013-03-02 11:16:00,
2013-03-02 05:25:00,25.4,18.3,30.30,North,355,7.0,10.0,74,0.00,,,0.00,Wunderground v.1.15,2013-03-02 11:25:00,
2013-03-02 05:31:00,25.4,17.9,30.31,NNE,13,7.0,7.0,73,0.00,,,0.00,Wunderground v.1.15,2013-03-02 11:31:00,
2013-03-02 05:36:00,25.3,17.5,30.31,North,9,7.0,7.0,72,0.00,,,0.00,Wunderground v.1.15,2013-03-02 11:36:00,
2013-03-02 05:45:00,25.3,17.5,30.31,NNW,348,6.0,10.0,72,0.00,,,0.00,Wunderground v.1.15,2013-03-02 11:45:00,
2013-03-02 05:50:00,25.3,17.5,30.31,NNW,343,6.0,9.0,72,0.00,,,0.00,Wunderground v.1.15,2013-03-02 11:50:00,
2013-03-02 05:55:00,25.3,17.5,30.31,NNE,24,6.0,9.0,72,0.00,,,0.00,Wunderground v.1.15,2013-03-02 11:55:00,
2013-03-02 06:00:00,25.3,17.5,30.32,North,360,7.0,7.0,72,0.00,,,0.00,Wunderground v.1.15,2013-03-02 12:00:00,
2013-03-02 06:06:00,25.3,17.9,30.32,NNW,333,6.0,7.0,73,0.00,,,0.00,Wunderground v.1.15,2013-03-02 12:06:00,
2013-03-02 06:15:00,25.3,18.2,30.32,NNW,346,5.0,9.0,74,0.00,,,0.00,Wunderground v.1.15,2013-03-02 12:15:00,
2013-03-02 06:20:00,25.3,17.9,30.32,North,355,6.0,9.0,73,0.00,,,0.00,Wunderground v.1.15,2013-03-02 12:20:00,
2013-03-02 06:25:00,25.3,17.9,30.32,NNW,332,7.0,9.0,73,0.00,,,0.00,Wunderground v.1.15,2013-03-02 12:25:00,
2013-03-02 06:30:00,25.1,17.7,30.33,NNW,330,6.0,6.0,73,0.00,,,0.00,Wunderground v.1.15,2013-03-02 12:30:00,
2013-03-02 06:36:00,25.1,17.7,30.33,NNW,332,5.0,9.0,73,0.00,,,0.00,Wunderground v.1.15,2013-03-02 12:36:00,
2013-03-02 06:41:00,25.1,17.3,30.33,NNW,345,5.0,5.0,72,0.00,,,0.00,Wunderground v.1.15,2013-03-02 12:41:00,
2013-03-02 06:50:00,25.0,16.9,30.33,North,360,7.0,12.0,71,0.00,,,0.00,Wunderground v.1.15,2013-03-02 12:50:00,
2013-03-02 06:55:00,25.0,16.9,30.33,NNW,331,7.0,7.0,71,0.00,,,0.00,Wunderground v.1.15,2013-03-02 12:55:00,
2013-03-02 07:01:00,24.8,16.4,30.33,North,5,7.0,7.0,70,0.00,,,0.00,Wunderground v.1.15,2013-03-02 13:01:00,
2013-03-02 07:11:00,24.8,16.4,30.33,NNW,335,8.0,8.0,70,0.00,,,0.00,Wunderground v.1.15,2013-03-02 13:11:00,
2013-03-02 07:20:00,24.8,16.4,30.34,North,5,7.0,8.0,70,0.00,,,0.00,Wunderground v.1.15,2013-03-02 13:20:00,
2013-03-02 07:25:00,24.8,16.4,30.34,NNW,341,9.0,9.0,70,0.00,,,0.00,Wunderground v.1.15,2013-03-02 13:25:00,
2013-03-02 07:30:00,24.8,16.4,30.35,NNW,344,8.0,9.0,70,0.00,,,0.00,Wunderground v.1.15,2013-03-02 13:30:00,
2013-03-02 07:36:00,24.8,16.4,30.35,North,9,7.0,7.0,70,0.00,,,0.00,Wunderground v.1.15,2013-03-02 13:36:00,
2013-03-02 07:46:00,24.8,16.4,30.35,North,355,7.0,7.0,70,0.00,,,0.00,Wunderground v.1.15,2013-03-02 13:46:00,
2013-03-02 07:55:00,24.7,16.0,30.35,North,355,10.0,13.0,69,0.00,,,0.00,Wunderground v.1.15,2013-03-02 13:55:00,
2013-03-02 08:00:00,24.7,16.0,30.36,North,355,10.0,10.0,69,0.00,,,0.00,Wunderground v.1.15,2013-03-02 14:00:00,
2013-03-02 08:05:00,24.7,16.0,30.36,North,9,9.0,10.0,69,0.00,,,0.00,Wunderground v.1.15,2013-03-02 14:05:00,
2013-03-02 08:10:00,24.7,16.0,30.36,North,355,9.0,9.0,69,0.00,,,0.00,Wunderground v.1.15,2013-03-02 14:10:00,
2013-03-02 08:16:00,24.7,16.3,30.36,North,355,8.0,10.0,70,0.00,,,0.00,Wunderground v.1.15,2013-03-02 14:16:00,
2013-03-02 08:25:00,24.7,16.3,30.36,NE,41,8.0,8.0,70,0.00,,,0.00,Wunderground v.1.15,2013-03-02 14:25:00,
2013-03-02 08:31:00,24.7,16.3,30.36,North,5,8.0,9.0,70,0.00,,,0.00,Wunderground v.1.15,2013-03-02 14:31:00,
2013-03-02 08:36:00,24.7,16.6,30.36,NNE,32,8.0,8.0,71,0.00,,,0.00,Wunderground v.1.15,2013-03-02 14:36:00,
2013-03-02 08:45:00,24.8,16.7,30.36,NNW,335,5.0,8.0,71,0.00,,,0.00,Wunderground v.1.15,2013-03-02 14:45:00,
2013-03-02 08:50:00,25.0,16.9,30.36,NE,35,6.0,6.0,71,0.00,,,0.00,Wunderground v.1.15,2013-03-02 14:50:00,
2013-03-02 08:56:00,24.8,16.7,30.36,North,5,7.0,8.0,71,0.00,,,0.00,Wunderground v.1.15,2013-03-02 14:56:00,
2013-03-02 09:01:00,24.8,16.7,30.36,NNE,18,7.0,10.0,71,0.00,,,0.00,Wunderground v.1.15,2013-03-02 15:01:00,
2013-03-02 09:06:00,25.0,16.9,30.36,North,360,6.0,10.0,71,0.00,,,0.00,Wunderground v.1.15,2013-03-02 15:06:00,
2013-03-02 09:15:00,25.0,16.9,30.37,NNW,335,7.0,10.0,71,0.00,,,0.00,Wunderground v.1.15,2013-03-02 15:15:00,
2013-03-02 09:20:00,24.8,17.1,30.37,NNW,345,7.0,10.0,72,0.00,,,0.00,Wunderground v.1.15,2013-03-02 15:20:00,
2013-03-02 09:26:00,25.0,16.9,30.37,NNE,22,7.0,7.0,71,0.00,,,0.00,Wunderground v.1.15,2013-03-02 15:26:00,
2013-03-02 09:31:00,24.8,16.7,30.37,NW,325,6.0,7.0,71,0.00,,,0.00,Wunderground v.1.15,2013-03-02 15:31:00,
2013-03-02 09:40:00,25.0,16.6,30.37,North,355,7.0,13.0,70,0.00,,,0.00,Wunderground v.1.15,2013-03-02 15:40:00,
2013-03-02 09:45:00,25.0,16.6,30.37,North,355,7.0,9.0,70,0.00,,,0.00,Wunderground v.1.15,2013-03-02 15:45:00,
2013-03-02 09:50:00,25.0,16.9,30.37,NNW,336,7.0,9.0,71,0.00,,,0.00,Wunderground v.1.15,2013-03-02 15:50:00,
2013-03-02 09:55:00,25.1,17.0,30.37,North,355,6.0,6.0,71,0.00,,,0.00,Wunderground v.1.15,2013-03-02 15:55:00,
2013-03-02 10:01:00,25.1,16.7,30.37,NNE,12,6.0,6.0,70,0.00,,,0.00,Wunderground v.1.15,2013-03-02 16:01:00,
2013-03-02 10:06:00,25.0,16.9,30.37,NNW,345,6.0,7.0,71,0.00,,,0.00,Wunderground v.1.15,2013-03-02 16:06:00,
2013-03-02 10:11:00,25.0,16.9,30.37,NNW,344,7.0,9.0,71,0.00,,,0.00,Wunderground v.1.15,2013-03-02 16:11:00,
2013-03-02 10:20:00,25.0,16.3,30.36,NNE,13,8.0,9.0,69,0.00,,,0.00,Wunderground v.1.15,2013-03-02 16:20:00,
2013-03-02 10:26:00,25.1,16.7,30.36,North,5,7.0,7.0,70,0.00,,,0.00,Wunderground v.1.15,2013-03-02 16:26:00,
2013-03-02 10:31:00,25.4,16.6,30.36,North,360,6.0,7.0,69,0.00,,,0.00,Wunderground v.1.15,2013-03-02 16:31:00,
2013-03-02 10:36:00,25.4,16.6,30.36,NNW,343,6.0,10.0,69,0.00,,,0.00,Wunderground v.1.15,2013-03-02 16:36:00,
2013-03-02 10:41:00,25.6,16.8,30.36,North,360,7.0,10.0,69,0.00,,,0.00,Wunderground v.1.15,2013-03-02 16:41:00,
2013-03-02 10:46:00,25.7,16.9,30.37,NNW,346,6.0,6.0,69,0.00,,,0.00,Wunderground v.1.15,2013-03-02 16:46:00,
2013-03-02 10:55:00,25.8,16.0,30.37,NNE,13,6.0,11.0,66,0.00,,,0.00,Wunderground v.1.15,2013-03-02 16:55:00,
2013-03-02 11:01:00,26.0,15.8,30.38,North,351,6.0,6.0,65,0.00,,,0.00,Wunderground v.1.15,2013-03-02 17:01:00,
2013-03-02 11:06:00,26.3,16.1,30.38,North,351,7.0,10.0,65,0.00,,,0.00,Wunderground v.1.15,2013-03-02 17:06:00,
2013-03-02 11:15:00,27.0,15.7,30.37,North,11,7.0,9.0,62,0.00,,,0.00,Wunderground v.1.15,2013-03-02 17:15:00,
2013-03-02 11:20:00,27.3,16.0,30.37,NNW,348,6.0,12.0,62,0.00,,,0.00,Wunderground v.1.15,2013-03-02 17:20:00,
2013-03-02 11:26:00,27.6,16.3,30.37,NNW,345,6.0,12.0,62,0.00,,,0.00,Wunderground v.1.15,2013-03-02 17:26:00,
2013-03-02 11:31:00,27.9,16.9,30.36,North,11,6.0,7.0,63,0.00,,,0.00,Wunderground v.1.15,2013-03-02 17:31:00,
2013-03-02 11:36:00,28.1,16.7,30.36,NNE,15,6.0,10.0,62,0.00,,,0.00,Wunderground v.1.15,2013-03-02 17:36:00,
2013-03-02 11:41:00,27.6,16.3,30.36,NW,315,7.0,7.0,62,0.00,,,0.00,Wunderground v.1.15,2013-03-02 17:41:00,
2013-03-02 11:50:00,27.6,16.6,30.36,North,360,6.0,7.0,63,0.00,,,0.00,Wunderground v.1.15,2013-03-02 17:50:00,
2013-03-02 11:56:00,27.8,17.2,30.36,North,355,7.0,7.0,64,0.00,,,0.00,Wunderground v.1.15,2013-03-02 17:56:00,
2013-03-02 12:01:00,27.5,16.5,30.36,North,5,7.0,7.0,63,0.00,,,0.00,Wunderground v.1.15,2013-03-02 18:01:00,
2013-03-02 12:06:00,27.6,17.0,30.36,NNE,14,5.0,8.0,64,0.00,,,0.00,Wunderground v.1.15,2013-03-02 18:06:00,
2013-03-02 12:15:00,28.1,17.8,30.35,NNW,335,5.0,5.0,65,0.00,,,0.00,Wunderground v.1.15,2013-03-02 18:15:00,
2013-03-02 12:20:00,28.4,17.8,30.35,NNW,341,5.0,7.0,64,0.00,,,0.00,Wunderground v.1.15,2013-03-02 18:20:00,
2013-03-02 12:26:00,28.1,17.1,30.35,North,5,6.0,6.0,63,0.00,,,0.00,Wunderground v.1.15,2013-03-02 18:26:00,
2013-03-02 12:31:00,28.5,18.2,30.35,NNE,18,5.0,6.0,65,0.00,,,0.00,Wunderground v.1.15,2013-03-02 18:31:00,
2013-03-02 12:40:00,29.0,18.7,30.35,NNW,344,5.0,8.0,65,0.00,,,0.00,Wunderground v.1.15,2013-03-02 18:40:00,
2013-03-02 12:46:00,29.3,18.6,30.34,North,5,5.0,8.0,64,0.00,,,0.00,Wunderground v.1.15,2013-03-02 18:46:00,
2013-03-02 12:51:00,29.3,19.0,30.34,NNW,348,5.0,7.0,65,0.00,,,0.00,Wunderground v.1.15,2013-03-02 18:51:00,
2013-03-02 12:56:00,29.1,17.7,30.34,North,360,6.0,7.0,62,0.00,,,0.00,Wunderground v.1.15,2013-03-02 18:56:00,
2013-03-02 13:05:00,29.0,18.0,30.34,North,5,6.0,12.0,63,0.00,,,0.00,Wunderground v.1.15,2013-03-02 19:05:00,
2013-03-02 13:10:00,28.7,18.1,30.34,NW,305,7.0,7.0,64,0.00,,,0.00,Wunderground v.1.15,2013-03-02 19:10:00,
2013-03-02 13:16:00,29.4,18.7,30.33,NNW,338,6.0,9.0,64,0.00,,,0.00,Wunderground v.1.15,2013-03-02 19:16:00,
2013-03-02 13:21:00,29.3,17.9,30.33,NNW,331,6.0,9.0,62,0.00,,,0.00,Wunderground v.1.15,2013-03-02 19:21:00,
2013-03-02 13:30:00,30.7,19.6,30.32,NNE,17,6.0,9.0,63,0.00,,,0.00,Wunderground v.1.15,2013-03-02 19:30:00,
2013-03-02 13:35:00,31.5,18.8,30.32,NNW,329,6.0,8.0,59,0.00,,,0.00,Wunderground v.1.15,2013-03-02 19:35:00,
2013-03-02 13:41:00,31.3,18.6,30.32,North,360,7.0,8.0,59,0.00,,,0.00,Wunderground v.1.15,2013-03-02 19:41:00,
2013-03-02 13:46:00,32.2,20.2,30.32,NNW,347,5.0,5.0,61,0.00,,,0.00,Wunderground v.1.15,2013-03-02 19:46:00,
2013-03-02 13:51:00,32.2,18.2,30.32,NNW,345,5.0,5.0,56,0.00,,,0.00,Wunderground v.1.15,2013-03-02 19:51:00,
2013-03-02 13:56:00,32.1,19.0,30.32,North,9,6.0,6.0,58,0.00,,,0.00,Wunderground v.1.15,2013-03-02 19:56:00,
2013-03-02 14:05:00,31.9,18.4,30.31,North,360,6.0,9.0,57,0.00,,,0.00,Wunderground v.1.15,2013-03-02 20:05:00,
2013-03-02 14:11:00,31.6,18.1,30.31,NW,325,6.0,6.0,57,0.00,,,0.00,Wunderground v.1.15,2013-03-02 20:11:00,
2013-03-02 14:16:00,30.9,17.4,30.31,WNW,296,4.0,6.0,57,0.00,,,0.00,Wunderground v.1.15,2013-03-02 20:16:00,
2013-03-02 14:25:00,31.9,18.4,30.31,NW,324,3.0,4.0,57,0.00,,,0.00,Wunderground v.1.15,2013-03-02 20:25:00,
2013-03-02 14:30:00,32.7,19.9,30.30,SW,225,3.0,3.0,59,0.00,,,0.00,Wunderground v.1.15,2013-03-02 20:30:00,
2013-03-02 14:36:00,33.2,19.2,30.30,NNW,338,3.0,5.0,56,0.00,,,0.00,Wunderground v.1.15,2013-03-02 20:36:00,
2013-03-02 14:41:00,32.7,18.3,30.30,NNW,339,4.0,4.0,55,0.00,,,0.00,Wunderground v.1.15,2013-03-02 20:41:00,
2013-03-02 14:50:00,32.7,18.7,30.31,NNW,342,5.0,6.0,56,0.00,,,0.00,Wunderground v.1.15,2013-03-02 20:50:00,
2013-03-02 14:56:00,32.7,18.3,30.31,NW,323,6.0,6.0,55,0.00,,,0.00,Wunderground v.1.15,2013-03-02 20:56:00,
2013-03-02 15:01:00,32.8,18.0,30.30,NNW,344,5.0,5.0,54,0.00,,,0.00,Wunderground v.1.15,2013-03-02 21:01:00,
2013-03-02 15:10:00,32.9,17.6,30.30,WNW,301,5.0,5.0,53,0.00,,,0.00,Wunderground v.1.15,2013-03-02 21:10:00,
2013-03-02 15:15:00,33.4,18.5,30.30,NNW,344,4.0,4.0,54,0.00,,,0.00,Wunderground v.1.15,2013-03-02 21:15:00,
2013-03-02 15:21:00,34.0,19.5,30.30,WSW,252,2.0,4.0,55,0.00,,,0.00,Wunderground v.1.15,2013-03-02 21:21:00,
2013-03-02 15:26:00,34.4,19.5,30.30,WNW,285,1.0,1.0,54,0.00,,,0.00,Wunderground v.1.15,2013-03-02 21:26:00,
2013-03-02 15:35:00,32.2,17.4,30.30,NNW,344,6.0,6.0,54,0.00,,,0.00,Wunderground v.1.15,2013-03-02 21:35:00,
2013-03-02 15:41:00,32.4,18.0,30.30,NNW,331,4.0,4.0,55,0.00,,,0.00,Wunderground v.1.15,2013-03-02 21:41:00,
2013-03-02 15:46:00,32.5,17.7,30.31,NNW,327,4.0,5.0,54,0.00,,,0.00,Wunderground v.1.15,2013-03-02 21:46:00,
2013-03-02 15:51:00,32.8,18.8,30.31,NNW,334,3.0,3.0,56,0.00,,,0.00,Wunderground v.1.15,2013-03-02 21:51:00,
2013-03-02 16:00:00,32.9,18.5,30.30,NNW,344,3.0,3.0,55,0.00,,,0.00,Wunderground v.1.15,2013-03-02 22:00:00,
2013-03-02 16:06:00,32.8,18.0,30.30,NNW,344,4.0,4.0,54,0.00,,,0.00,Wunderground v.1.15,2013-03-02 22:06:00,
2013-03-02 16:11:00,32.8,18.0,30.30,NNW,331,5.0,6.0,54,0.00,,,0.00,Wunderground v.1.15,2013-03-02 22:11:00,
2013-03-02 16:20:00,32.8,18.0,30.31,NNW,333,4.0,6.0,54,0.00,,,0.00,Wunderground v.1.15,2013-03-02 22:20:00,
2013-03-02 16:26:00,33.1,18.2,30.31,NNW,335,3.0,5.0,54,0.00,,,0.00,Wunderground v.1.15,2013-03-02 22:26:00,
2013-03-02 16:31:00,33.1,18.2,30.30,WNW,302,2.0,5.0,54,0.00,,,0.00,Wunderground v.1.15,2013-03-02 22:31:00,
2013-03-02 16:40:00,32.8,18.0,30.30,WNW,302,3.0,3.0,54,0.00,,,0.00,Wunderground v.1.15,2013-03-02 22:40:00,
2013-03-02 16:45:00,32.8,18.0,30.30,NNW,342,3.0,3.0,54,0.00,,,0.00,Wunderground v.1.15,2013-03-02 22:45:00,
2013-03-02 16:51:00,32.5,17.7,30.30,NNW,340,3.0,3.0,54,0.00,,,0.00,Wunderground v.1.15,2013-03-02 22:51:00,
2013-03-02 16:56:00,32.4,18.0,30.30,NW,320,4.0,4.0,55,0.00,,,0.00,Wunderground v.1.15,2013-03-02 22:56:00,
2013-03-02 17:01:00,32.1,18.6,30.30,NNW,344,3.0,3.0,57,0.00,,,0.00,Wunderground v.1.15,2013-03-02 23:01:00,
2013-03-02 17:10:00,31.5,18.8,30.30,NNW,344,1.0,3.0,59,0.00,,,0.00,Wunderground v.1.15,2013-03-02 23:10:00,
2013-03-02 17:15:00,31.0,17.9,30.31,NNW,335,1.0,5.0,58,0.00,,,0.00,Wunderground v.1.15,2013-03-02 23:15:00,
2013-03-02 17:21:00,30.6,18.0,30.31,NW,322,3.0,5.0,59,0.00,,,0.00,Wunderground v.1.15,2013-03-02 23:21:00,
2013-03-02 17:26:00,30.4,18.5,30.31,NW,322,2.0,2.0,61,0.00,,,0.00,Wunderground v.1.15,2013-03-02 23:26:00,
2013-03-02 17:31:00,30.1,18.3,30.30,NW,322,0.0,2.0,61,0.00,,,0.00,Wunderground v.1.15,2013-03-02 23:31:00,
2013-03-02 17:40:00,29.7,18.3,30.30,NW,322,0.0,1.0,62,0.00,,,0.00,Wunderground v.1.15,2013-03-02 23:40:00,
2013-03-02 17:45:00,29.5,18.4,30.31,NW,322,0.0,1.0,63,0.00,,,0.00,Wunderground v.1.15,2013-03-02 23:45:00,
2013-03-02 17:51:00,29.3,18.6,30.31,NW,322,0.0,0.0,64,0.00,,,0.00,Wunderground v.1.15,2013-03-02 23:51:00,
2013-03-02 17:56:00,29.1,18.4,30.31,NW,322,0.0,0.0,64,0.00,,,0.00,Wunderground v.1.15,2013-03-02 23:56:00,
2013-03-02 18:06:00,28.7,18.4,30.31,NW,322,0.0,0.0,65,0.00,,,0.00,Wunderground v.1.15,2013-03-03 00:06:00,
2013-03-02 18:11:00,28.2,18.3,30.31,NW,322,0.0,0.0,66,0.00,,,0.00,Wunderground v.1.15,2013-03-03 00:11:00,
2013-03-02 18:20:00,27.6,18.1,30.31,NW,322,0.0,0.0,67,0.00,,,0.00,Wunderground v.1.15,2013-03-03 00:20:00,
2013-03-02 18:25:00,27.2,18.0,30.31,NW,322,0.0,0.0,68,0.00,,,0.00,Wunderground v.1.15,2013-03-03 00:25:00,
2013-03-02 18:31:00,26.7,17.9,30.31,NW,322,0.0,0.0,69,0.00,,,0.00,Wunderground v.1.15,2013-03-03 00:31:00,
2013-03-02 18:36:00,26.4,17.6,30.31,NW,322,0.0,0.0,69,0.00,,,0.00,Wunderground v.1.15,2013-03-03 00:36:00,
2013-03-02 18:45:00,25.7,17.3,30.32,NW,322,0.0,0.0,70,0.00,,,0.00,Wunderground v.1.15,2013-03-03 00:45:00,
2013-03-02 18:51:00,25.3,17.2,30.32,NW,322,0.0,0.0,71,0.00,,,0.00,Wunderground v.1.15,2013-03-03 00:51:00,
2013-03-02 18:56:00,25.0,16.9,30.32,NW,322,0.0,0.0,71,0.00,,,0.00,Wunderground v.1.15,2013-03-03 00:56:00,
2013-03-02 19:01:00,24.7,17.6,30.32,NW,322,0.0,0.0,74,0.00,,,0.00,Wunderground v.1.15,2013-03-03 01:01:00,
2013-03-02 19:10:00,24.7,18.2,30.32,NW,322,0.0,0.0,76,0.00,,,0.00,Wunderground v.1.15,2013-03-03 01:10:00,
2013-03-02 19:16:00,24.5,18.0,30.32,NW,322,0.0,0.0,76,0.00,,,0.00,Wunderground v.1.15,2013-03-03 01:16:00,
2013-03-02 19:21:00,24.4,17.9,30.32,NW,322,0.0,0.0,76,0.00,,,0.00,Wunderground v.1.15,2013-03-03 01:21:00,
2013-03-02 19:26:00,24.2,18.0,30.32,NW,322,0.0,0.0,77,0.00,,,0.00,Wunderground v.1.15,2013-03-03 01:26:00,
2013-03-02 19:35:00,24.1,18.2,30.32,NW,322,0.0,0.0,78,0.00,,,0.00,Wunderground v.1.15,2013-03-03 01:35:00,
2013-03-02 19:40:00,23.9,18.0,30.32,NW,322,0.0,0.0,78,0.00,,,0.00,Wunderground v.1.15,2013-03-03 01:40:00,
2013-03-02 19:46:00,23.8,17.9,30.32,NW,322,0.0,0.0,78,0.00,,,0.00,Wunderground v.1.15,2013-03-03 01:46:00,
2013-03-02 19:51:00,23.6,17.7,30.32,NW,322,0.0,0.0,78,0.00,,,0.00,Wunderground v.1.15,2013-03-03 01:51:00,
2013-03-02 19:56:00,23.5,17.6,30.32,NW,322,0.0,0.0,78,0.00,,,0.00,Wunderground v.1.15,2013-03-03 01:56:00,
2013-03-02 20:05:00,23.2,17.7,30.32,NW,322,0.0,0.0,79,0.00,,,0.00,Wunderground v.1.15,2013-03-03 02:05:00,
2013-03-02 20:10:00,23.0,17.5,30.32,NW,322,0.0,0.0,79,0.00,,,0.00,Wunderground v.1.15,2013-03-03 02:10:00,
2013-03-02 20:15:00,22.9,17.4,30.31,NW,322,0.0,0.0,79,0.00,,,0.00,Wunderground v.1.15,2013-03-03 02:15:00,
2013-03-02 20:21:00,22.5,17.3,30.31,NW,322,0.0,0.0,80,0.00,,,0.00,Wunderground v.1.15,2013-03-03 02:21:00,
2013-03-02 20:26:00,22.4,17.2,30.31,NW,322,0.0,0.0,80,0.00,,,0.00,Wunderground v.1.15,2013-03-03 02:26:00,
2013-03-02 20:35:00,22.1,17.2,30.31,NW,322,0.0,0.0,81,0.00,,,0.00,Wunderground v.1.15,2013-03-03 02:35:00,
2013-03-02 20:40:00,22.1,17.2,30.31,NW,322,0.0,0.0,81,0.00,,,0.00,Wunderground v.1.15,2013-03-03 02:40:00,
2013-03-02 20:45:00,21.9,17.0,30.31,NW,322,0.0,0.0,81,0.00,,,0.00,Wunderground v.1.15,2013-03-03 02:45:00,
2013-03-02 20:51:00,21.6,16.7,30.31,NW,322,0.0,0.0,81,0.00,,,0.00,Wunderground v.1.15,2013-03-03 02:51:00,
2013-03-02 20:56:00,21.3,16.4,30.31,NW,322,0.0,0.0,81,0.00,,,0.00,Wunderground v.1.15,2013-03-03 02:56:00,
2013-03-02 21:01:00,21.1,16.2,30.31,NW,322,0.0,0.0,81,0.00,,,0.00,Wunderground v.1.15,2013-03-03 03:01:00,
2013-03-02 21:06:00,20.8,15.9,30.31,NW,322,0.0,0.0,81,0.00,,,0.00,Wunderground v.1.15,2013-03-03 03:06:00,
2013-03-02 21:15:00,20.8,16.5,30.31,NW,322,0.0,0.0,83,0.00,,,0.00,Wunderground v.1.15,2013-03-03 03:15:00,
2013-03-02 21:20:00,20.8,16.5,30.31,NW,322,0.0,0.0,83,0.00,,,0.00,Wunderground v.1.15,2013-03-03 03:20:00,
2013-03-02 21:25:00,20.8,16.5,30.31,NW,322,0.0,0.0,83,0.00,,,0.00,Wunderground v.1.15,2013-03-03 03:25:00,
2013-03-02 21:30:00,20.8,16.5,30.31,NW,322,0.0,0.0,83,0.00,,,0.00,Wunderground v.1.15,2013-03-03 03:30:00,
2013-03-02 21:36:00,20.6,16.3,30.31,NW,322,0.0,0.0,83,0.00,,,0.00,Wunderground v.1.15,2013-03-03 03:36:00,
2013-03-02 21:41:00,20.6,16.5,30.31,NW,322,0.0,0.0,84,0.00,,,0.00,Wunderground v.1.15,2013-03-03 03:41:00,
2013-03-02 21:46:00,20.6,16.5,30.31,NW,322,0.0,0.0,84,0.00,,,0.00,Wunderground v.1.15,2013-03-03 03:46:00,
2013-03-02 21:51:00,20.5,16.4,30.31,NW,322,0.0,0.0,84,0.00,,,0.00,Wunderground v.1.15,2013-03-03 03:51:00,
2013-03-02 22:00:00,20.2,16.1,30.31,NW,322,0.0,0.0,84,0.00,,,0.00,Wunderground v.1.15,2013-03-03 04:00:00,
2013-03-02 22:05:00,20.0,15.9,30.31,NW,322,0.0,0.0,84,0.00,,,0.00,Wunderground v.1.15,2013-03-03 04:05:00,
2013-03-02 22:11:00,19.7,15.6,30.31,NW,322,0.0,0.0,84,0.00,,,0.00,Wunderground v.1.15,2013-03-03 04:11:00,
2013-03-02 22:16:00,19.7,15.6,30.30,NW,322,0.0,0.0,84,0.00,,,0.00,Wunderground v.1.15,2013-03-03 04:16:00,
2013-03-02 22:21:00,19.7,15.9,30.30,NW,322,0.0,0.0,85,0.00,,,0.00,Wunderground v.1.15,2013-03-03 04:21:00,
2013-03-02 22:26:00,19.7,15.9,30.30,NW,322,0.0,0.0,85,0.00,,,0.00,Wunderground v.1.15,2013-03-03 04:26:00,
2013-03-02 22:31:00,19.5,15.7,30.30,NW,322,0.0,0.0,85,0.00,,,0.00,Wunderground v.1.15,2013-03-03 04:31:00,
2013-03-02 22:40:00,19.4,15.6,30.30,NW,322,0.0,0.0,85,0.00,,,0.00,Wunderground v.1.15,2013-03-03 04:40:00,
2013-03-02 22:45:00,19.2,15.4,30.30,NW,322,0.0,0.0,85,0.00,,,0.00,Wunderground v.1.15,2013-03-03 04:45:00,
2013-03-02 22:50:00,19.1,15.3,30.30,NW,322,0.0,0.0,85,0.00,,,0.00,Wunderground v.1.15,2013-03-03 04:50:00,
2013-03-02 22:56:00,19.1,15.3,30.30,NW,322,0.0,0.0,85,0.00,,,0.00,Wunderground v.1.15,2013-03-03 04:56:00,
2013-03-02 23:01:00,18.9,15.1,30.30,NW,322,0.0,0.0,85,0.00,,,0.00,Wunderground v.1.15,2013-03-03 05:01:00,
2013-03-02 23:06:00,18.8,15.0,30.30,NW,322,0.0,0.0,85,0.00,,,0.00,Wunderground v.1.15,2013-03-03 05:06:00,
2013-03-02 23:15:00,18.6,15.1,30.29,NW,322,0.0,0.0,86,0.00,,,0.00,Wunderground v.1.15,2013-03-03 05:15:00,
2013-03-02 23:20:00,18.6,15.1,30.29,NW,322,0.0,0.0,86,0.00,,,0.00,Wunderground v.1.15,2013-03-03 05:20:00,
2013-03-02 23:26:00,18.4,14.9,30.29,NW,322,0.0,0.0,86,0.00,,,0.00,Wunderground v.1.15,2013-03-03 05:26:00,
2013-03-02 23:31:00,18.4,14.9,30.28,NW,322,0.0,0.0,86,0.00,,,0.00,Wunderground v.1.15,2013-03-03 05:31:00,
2013-03-02 23:41:00,18.4,14.9,30.28,NW,322,0.0,0.0,86,0.00,,,0.00,Wunderground v.1.15,2013-03-03 05:41:00,
2013-03-02 23:45:00,18.3,14.8,30.27,NW,322,0.0,0.0,86,0.00,,,0.00,Wunderground v.1.15,2013-03-03 05:45:00,
2013-03-02 23:50:00,18.1,14.6,30.27,NW,322,0.0,0.0,86,0.00,,,0.00,Wunderground v.1.15,2013-03-03 05:50:00,
2013-03-02 23:55:00,18.1,14.6,30.27,NW,322,0.0,0.0,86,0.00,,,0.00,Wunderground v.1.15,2013-03-03 05:55:00,